SCP
1 1 1 1 1 1 1 1 1 1 1 1 1 0 0 0 0 0 0 0 0 1 1 1 1 1 1 1 1 1 1 1 1 1 1 1 1 1 1 1 1 1 1
1 1 1 1 1 1 1 1 1 1 1 1 1 0 0 0 0 0 0 0 0 0 1 1 1 1 1 1 1 1 1 1 1 1 1 1 1 1 1 1 1 1 1
1 1 1 1 1 1 1 1 1 1 1 1 1 1 0 0 0 0 0 0 0 0 1 1 1 1 1 1 1 1 1 1 1 1 1 1 1 1 1 1 1 1 1
1 1 1 1 1 1 1 1 1 1 1 1 1 1 1 0 0 0 0 0 0 0 1 1 1 1 1 1 1 1 1 1 1 0 0 0 0 0 0 1 1 1 1
1 1 1 1 1 1 1 1 1 1 1 1 1 1 1 1 0 0 0 0 0 0 1 1 0 0 0 1 1 1 1 1 1 1 1 0 0 0 0 1 1 1 1
0 0 1 1 1 1 1 1 0 0 0 1 1 1 1 1 0 0 0 0 0 0 0 0 0 0 0 0 0 1 1 1 1 1 1 1 0 0 0 1 1 1 1
0 0 0 0 1 1 1 0 0 0 0 0 0 1 1 1 1 0 0 0 0 0 0 1 1 1 0 0 0 0 1 1 1 1 1 1 1 0 0 1 1 1 1
0 0 0 0 0 0 0 0 0 0 0 0 0 0 1 1 1 1 0 0 0 0 0 1 1 1 1 1 0 0 1 1 1 1 1 1 1 0 0 1 1 1 1
0 0 0 0 0 0 0 0 0 0 0 0 0 0 0 0 1 1 0 0 0 0 0 0 1 1 1 1 1 0 0 1 1 1 1 1 1 0 0 1 1 1 1
0 0 0 0 0 0 0 0 0 0 0 0 0 0 0 0 1 1 1 0 0 0 0 0 0 1 1 1 1 0 0 0 1 1 1 1 1 1 1 1 1 1 1
0 0 0 0 0 0 0 0 0 0 0 0 0 0 0 0 0 0 0 0 0 0 0 0 0 0 1 1 1 0 0 0 0 1 1 1 1 2 1 1 1 1 1
0 0 0 0 0 0 0 0 0 0 0 0 0 0 0 0 0 0 0 0 0 0 0 0 0 0 1 1 1 0 0 0 0 1 1 1 1 1 1 1 1 1 1
0 0 0 0 0 0 0 0 0 0 0 0 0 0 0 0 0 0 0 0 0 0 0 0 0 0 1 1 0 0 0 0 0 0 1 1 1 0 1 1 1 1 1
0 0 0 0 0 0 0 0 0 0 0 0 0 0 0 0 0 0 0 0 0 0 0 0 0 0 0 0 0 0 0 0 0 0 0 1 0 0 0 0 0 0 1
0 0 0 0 0 0 0 0 0 0 0 0 0 0 0 0 0 0 0 0 0 0 0 0 0 0 0 0 0 0 0 0 0 0 0 0 0 0 0 0 0 0 0
0 0 0 0 0 0 0 0 0 0 0 0 0 0 0 0 0 0 0 0 0 0 0 0 0 0 0 0 0 0 0 0 0 0 0 0 0 0 0 0 0 0 0
0 0 0 0 0 0 0 0 0 0 0 0 0 0 0 0 0 0 0 0 0 0 0 0 0 0 0 0 0 0 0 0 0 0 0 0 0 0 0 0 0 0 0
0 0 0 0 0 0 0 0 0 0 0 0 0 0 0 0 0 0 0 0 0 0 0 0 0 0 0 0 0 0 0 0 0 0 0 0 0 0 0 0 0 0 0
0 0 0 0 0 0 0 0 0 0 0 0 0 0 0 0 0 0 0 0 0 0 0 0 0 0 0 0 0 0 0 0 0 0 0 0 0 0 0 0 0 0 0
0 0 0 0 0 0 0 0 0 0 0 0 0 0 0 0 0 0 0 0 0 0 0 0 0 0 0 0 0 0 0 0 0 0 0 0 0 0 0 0 0 0 0
0 0 0 0 0 0 0 0 0 0 0 0 0 0 0 0 0 0 0 0 0 0 0 0 0 0 0 0 0 0 0 0 0 0 0 0 0 0 0 0 0 0 0
0 0 0 0 0 0 0 0 0 0 0 0 0 0 0 0 0 0 0 0 0 0 0 0 0 0 0 0 0 0 0 0 0 0 0 0 0 0 0 0 0 0 0
0 0 0 0 0 0 0 0 0 0 0 0 0 0 0 0 0 0 0 0 0 0 0 0 0 0 0 0 0 0 0 0 0 0 0 0 0 0 0 0 0 0 0
0 0 0 0 0 0 0 0 0 0 0 0 0 0 0 0 0 0 0 0 0 0 0 0 0 0 0 0 0 0 0 0 0 0 0 0 0 0 0 0 0 0 0
0 0 0 0 0 0 0 0 0 0 0 0 0 0 0 0 0 0 0 0 0 0 0 0 0 0 0 0 0 0 0 0 0 0 0 0 0 0 0 0 0 0 0
0 0 0 0 0 0 0 0 0 0 0 0 0 0 0 0 0 0 0 0 0 0 0 0 0 0 0 0 0 0 0 0 0 0 0 0 0 0 0 0 0 0 0
Wind_Speed
2 2 1 1 1 1 1 1 1 2 2 2 2 2 2 2 2 1 2 6 6 5 5 5 5 4 4 4 4 4 4 4 2 2 2 1 1 1 0 2 2 2 2
2 1 1 1 2 1 1 0 1 1 1 1 1 1 1 1 1 1 1 2 5 6 5 5 5 5 3 2 2 2 2 3 3 3 2 2 1 1 1 1 1 2 2
2 1 1 1 1 1 1 0 0 1 0 0 0 0 0 0 1 1 1 1 1 3 5 5 5 5 5 3 2 1 1 2 2 2 3 3 2 2 2 2 2 2 1
2 1 1 1 1 1 1 0 0 1 1 1 1 1 1 0 1 0 0 1 1 1 2 5 5 5 6 5 3 2 1 1 2 2 2 3 3 3 2 2 3 3 3
1 1 1 1 1 0 0 1 1 1 1 1 1 1 1 1 1 1 1 1 1 2 2 2 4 5 5 5 4 4 3 2 2 3 3 3 4 4 4 3 3 3 3
1 1 0 1 0 0 0 0 1 1 1 1 2 2 2 1 1 1 1 1 1 1 2 2 2 2 4 5 5 4 4 3 3 4 4 4 5 5 4 4 3 3 2
3 1 1 1 1 1 0 1 1 1 1 1 2 2 2 2 2 2 2 2 1 1 1 2 2 2 2 3 4 4 4 4 4 5 5 5 5 5 4 3 3 3 3
2 2 1 1 1 1 1 1 1 1 1 1 2 2 2 3 2 2 2 2 2 2 2 2 3 3 3 2 3 4 5 5 5 6 6 6 6 6 5 4 4 4 4
2 2 2 1 1 1 1 1 1 2 2 1 1 2 2 3 2 2 3 3 2 2 2 3 3 3 3 3 3 3 5 6 7 7 7 7 6 6 6 6 5 5 5
3 3 3 2 1 1 2 2 2 2 2 2 1 2 3 2 3 2 2 3 3 3 3 3 3 4 4 3 3 4 5 6 7 8 8 7 7 7 6 6 6 6 6
2 2 2 2 2 2 2 2 2 2 2 2 2 2 2 2 4 3 4 3 3 3 3 4 3 3 4 3 3 4 5 6 7 8 7 7 6 6 6 6 7 6 7
1 2 2 2 2 2 2 2 3 3 2 3 2 2 2 2 3 3 5 5 4 3 3 3 4 3 3 3 4 5 6 7 8 8 8 7 7 7 7 7 6 7 8
1 2 2 2 2 3 3 3 3 3 3 4 4 3 3 4 3 4 5 5 5 4 4 4 3 3 3 3 3 5 6 7 8 8 8 7 7 7 7 8 8 8 8
2 2 2 2 2 3 3 3 3 3 3 4 4 5 3 4 4 4 4 4 5 4 4 4 2 3 3 3 4 6 5 7 8 8 8 8 7 7 7 7 8 8 8
1 1 2 2 2 3 3 3 2 3 3 3 4 4 4 4 4 4 4 4 5 5 6 4 3 3 3 4 4 5 5 6 8 8 8 8 7 7 7 7 7 7 7
1 2 2 2 3 3 3 3 3 3 3 3 3 3 4 3 4 4 4 4 5 6 6 3 3 4 4 4 5 6 6 7 7 8 8 8 8 7 7 7 7 8 8
1 2 2 3 3 3 3 3 4 3 4 4 4 4 5 5 4 4 4 4 4 5 7 6 4 4 5 5 5 5 5 5 5 7 8 8 7 8 7 7 7 7 8
2 2 2 3 3 3 4 4 4 4 4 4 5 5 5 4 6 4 4 4 5 5 6 7 5 4 5 5 6 6 5 4 5 7 8 9 8 8 8 7 7 7 8
2 2 2 3 3 4 4 4 5 5 5 5 5 6 6 5 6 5 5 5 4 4 5 6 5 4 4 4 5 5 5 5 5 6 8 9 9 9 8 8 8 8 8
2 3 3 3 4 4 4 5 5 5 6 5 5 6 6 6 7 6 5 5 5 5 5 5 5 4 4 4 4 5 5 5 5 4 6 7 8 9 9 9 9 9 9
3 3 3 4 4 4 4 5 5 6 6 6 6 6 6 7 8 6 5 5 5 4 4 5 5 5 4 4 4 4 5 5 5 4 5 5 5 5 6 8 8 8 9
3 3 4 4 5 4 6 8 7 6 6 6 6 6 6 7 8 8 8 7 7 6 6 5 5 6 7 6 5 5 5 5 5 3 5 6 5 6 5 5 7 8 9
4 4 4 5 5 6 8 9 9 7 6 6 6 6 5 5 7 5 6 7 8 8 9 7 7 8 8 7 6 7 6 6 6 4 5 6 5 6 5 5 8 8 9
4 4 5 5 6 6 8 9 9 7 6 6 6 7 6 7 6 6 5 6 6 7 7 6 7 8 7 7 7 7 7 7 7 4 4 6 5 6 5 5 7 8 9
5 5 5 6 6 7 8 9 9 5 5 6 6 6 7 7 8 8 6 6 7 6 7 9 10 10 10 10 8 6 6 6 6 5 4 5 5 5 5 5 5 6 7
5 5 5 6 6 7 8 9 8 5 5 5 5 5 7 8 9 9 7 6 7 7 6 7 8 8 8 8 9 8 6 6 5 5 4 4 4 4 4 4 4 4 5
Wind_Direction
69 60 62 58 54 48 66 78 88 95 92 87 84 85 78 66 61 47 55 32 24 31 40 49 48 59 67 65 58 53 45 44 47 51 50 53 51 36 302 188 181 174 156
69 61 57 51 45 30 18 38 100 121 106 97 86 73 69 61 49 47 34 48 32 27 29 33 33 32 29 40 57 50 44 37 37 38 32 23 11 341 359 258 214 195 193
68 62 55 50 36 16 5 1 113 157 133 148 138 33 14 23 41 45 20 358 22 39 30 24 23 22 17 10 26 44 46 36 23 10 7 357 354 344 301 298 241 218 197
50 65 55 38 16 358 353 350 279 231 210 230 242 248 255 268 271 337 347 343 343 355 31 23 13 13 7 359 357 356 338 353 338 339 328 329 315 303 298 312 276 239 222
37 51 40 22 12 10 5 339 315 287 257 257 260 257 251 239 249 251 265 307 349 350 352 24 16 8 2 354 339 336 331 334 320 307 310 310 304 292 285 278 299 271 243
23 22 44 20 329 266 20 313 300 307 282 278 267 259 251 244 241 239 260 271 282 323 333 333 331 342 354 351 340 330 324 318 314 314 304 301 290 288 283 275 274 280 260
15 5 11 2 310 247 248 269 261 263 297 293 267 259 233 225 236 237 249 254 256 277 291 303 306 302 308 329 334 332 314 302 298 296 294 291 292 284 283 281 270 289 267
15 356 355 340 305 282 254 237 234 245 282 279 269 269 251 215 212 231 241 243 250 255 265 278 288 293 296 290 314 318 315 305 297 293 290 283 276 271 268 270 276 269 279
4 355 347 325 315 288 273 276 256 241 241 241 261 263 262 252 272 218 235 238 241 249 259 262 268 277 283 289 288 295 310 308 300 293 291 285 274 268 268 268 276 276 276
11 1 355 334 312 294 277 268 267 264 253 242 245 263 280 294 268 258 229 236 248 252 257 264 262 264 270 274 288 308 309 308 297 293 292 289 276 268 266 267 268 279 279
6 358 352 346 332 305 293 284 266 255 253 258 251 260 258 263 258 260 264 259 253 250 258 259 261 260 262 265 273 292 303 298 296 294 291 292 288 282 277 276 271 276 279
342 350 344 332 327 318 305 292 271 255 250 249 248 247 255 253 254 257 263 268 265 261 258 256 257 257 256 261 273 298 297 293 292 291 288 290 296 297 293 290 285 277 278
306 314 322 314 311 309 301 291 278 265 254 248 243 243 250 255 263 266 265 268 270 273 261 247 249 260 263 266 275 293 286 291 291 291 288 288 295 297 298 292 287 284 277
267 288 288 290 294 294 295 287 278 278 265 253 250 246 250 256 254 254 260 263 265 260 255 254 253 261 269 274 296 289 277 285 286 286 285 285 288 293 295 295 292 289 284
277 277 279 285 286 287 285 282 273 275 275 261 258 253 253 259 255 252 254 254 255 259 260 254 261 262 268 270 283 274 275 285 284 285 285 285 284 281 283 288 292 293 288
287 281 283 285 288 289 285 276 273 270 265 270 269 261 262 266 258 250 249 251 252 257 263 266 264 275 272 274 278 276 275 282 278 286 287 285 282 280 280 284 286 286 287
278 281 284 286 288 288 283 270 268 269 265 267 268 268 266 271 265 256 253 251 252 253 261 271 273 270 265 269 273 275 277 272 271 278 281 284 283 283 280 279 278 280 281
278 280 280 283 286 286 283 275 270 267 263 264 266 266 268 275 268 259 256 256 254 253 258 268 273 273 269 269 273 274 277 277 276 279 280 279 280 280 278 279 276 277 280
279 281 282 283 285 283 280 278 274 271 266 263 264 267 268 274 272 262 258 256 258 262 263 266 271 274 273 271 272 274 276 275 277 276 274 273 275 277 275 277 277 276 275
272 277 283 283 284 281 277 279 276 272 268 267 268 268 265 266 269 265 260 257 261 260 261 263 269 272 272 275 267 265 269 269 272 273 273 275 274 270 271 274 274 275 275
274 276 276 279 281 276 274 281 279 271 269 270 271 269 266 271 276 268 266 265 260 257 258 260 264 271 268 267 263 265 268 274 268 265 273 269 266 260 260 265 266 267 270
275 272 270 273 276 276 283 284 284 275 268 270 274 276 272 270 270 266 266 267 264 257 256 257 261 261 267 269 268 266 272 273 265 254 266 267 262 260 260 257 266 265 268
276 272 272 272 273 277 282 283 281 279 272 270 271 274 274 277 275 267 267 267 265 263 258 257 259 261 267 265 269 267 262 265 266 271 266 264 262 265 266 269 269 262 267
275 274 276 277 278 280 285 285 285 276 271 269 267 268 270 275 270 272 271 266 266 263 261 259 260 264 268 270 265 266 268 269 269 259 250 262 264 268 272 267 261 259 264
280 275 276 276 277 282 284 286 288 276 270 272 271 268 269 272 271 272 269 267 269 269 266 267 271 274 274 269 265 263 258 255 263 259 241 254 265 274 270 263 263 264 264
277 280 280 278 278 281 284 285 285 273 272 273 273 269 266 272 275 271 266 263 265 272 276 273 267 266 263 257 252 248 251 253 260 257 229 242 258 270 268 255 263 265 260